Air Resources Laboratory banner image
Air Resources Laboratory web site National Oceanic and Atmospheric Administration (NOAA)

de roundup


Office: PHI

ASUS41 KPHI 151212
RWRPHI

REGIONAL WEATHER ROUNDUP
NATIONAL WEATHER SERVICE MOUNT HOLLY NJ
700 AM EST FRI DEC 15 2017

NOTE:  "FAIR" INDICATES FEW OR NO CLOUDS BELOW 12,000 FEET WITH NO
SIGNIFICANT WEATHER AND/OR OBSTRUCTIONS TO VISIBILITY.

 * = STATION DOES NOT REPORT PRECIPITATION (E.G. RAIN, SNOW, ETC.)
        OR FOG.

NJZ015>026-151300-
SOUTHERN NEW JERSEY

CITY           SKY/WX    TMP DP  RH WIND       PRES   REMARKS
POMONA         PTCLDY    21  14  74 CALM      30.13S
6HR MIN TEMP:  21; 6HR MAX TEMP:  25;

WILDWOOD*      CLOUDY    25  11  55 NE7       30.13F WCI  17
MILLVILLE      CLOUDY    23  15  71 E5        30.12F WCI  17
WRIGHTSTOWN    MOCLDY    20  13  75 CALM      30.10R
MOUNT HOLLY    CLOUDY    20  13  74 CALM      30.14R
TRENTON        CLOUDY    20   9  62 NW3       30.11S
6HR MIN TEMP:  16; 6HR MAX TEMP:  20;


$$
NJZ001>014-151300-
NORTHERN NEW JERSEY

CITY           SKY/WX    TMP DP  RH WIND       PRES   REMARKS
SUSSEX         CLOUDY     6   4  91 S3        30.06R
ANDOVER*         N/A     10   7  87 CALM      30.07R
MORRISTOWN     MOCLDY    12  10  92 CALM      30.11R
NEWARK         CLOUDY    21   7  54 SW6       30.12R WCI  13
TETERBORO      PTCLDY    19  10  68 SW3       30.11R
CALDWELL       CLOUDY    15   9  76 CALM      30.11R
SOMERVILLE     CLOUDY    10   7  87 CALM      30.11R
ALLAIRE*       MOCLDY    18   9  68 SW5       30.12S WCI  11
TOMS RIVER*    PTCLDY    17  12  80 CALM      30.14R

$$
PAZ043-044-047-054-055-060>062-066>071-151300-
EASTERN PENNSYLVANIA

CITY           SKY/WX    TMP DP  RH WIND       PRES   REMARKS
PHILADELPHIA   CLOUDY    25  10  53 S3        30.14R
6HR MIN TEMP:  24; 6HR MAX TEMP:  25;

NORTH PHILA    PTCLDY    23  13  65 CALM      30.14S
BLUE BELL*     CLOUDY    18  14  86 CALM      30.13R
DOYLESTOWN     CLOUDY    15  10  80 CALM      30.10R
QUAKERTOWN*    CLOUDY    10   7  85 CALM      30.10S
PERKASIE*      FAIR      12   9  85 CALM      30.10S
POTTSTOWN      CLOUDY    16  10  77 CALM      30.12R
LANCASTER      CLOUDY    19  14  81 E5        30.09S WCI  12
COATESVILLE    CLOUDY    19  10  68 CALM      30.09S
READING        CLOUDY    16  13  88 CALM      30.10R
6HR MIN TEMP:  15; 6HR MAX TEMP:  20;

ALLENTOWN      PTCLDY    13   7  77 N3        30.09S
6HR MIN TEMP:  10; 6HR MAX TEMP:  20;

MOUNT POCONO   CLOUDY     5   4  95 CALM      29.94S
6HR MIN TEMP:   4; 6HR MAX TEMP:   9;

HAZLETON       CLOUDY     7  -2  66 MISG      30.01S
LEHIGHTON      FAIR       9   5  85 CALM      30.09F
WILKES BARRE   PTCLDY     9   4  80 SE3       30.03R

$$
DEZALL-MDZ008-012-015-019-020-151300-
DELAWARE AND EASTERN MARYLAND

CITY           SKY/WX    TMP DP  RH WIND       PRES   REMARKS
WILMINGTON     CLOUDY    23  16  74 CALM      30.13S
6HR MIN TEMP:  21; 6HR MAX TEMP:  24;

DOVER          CLOUDY    26  18  71 E6        30.11F WCI  20
GEORGETOWN     CLOUDY    28  18  66 NE5       30.12F WCI  23
6HR MIN TEMP:  27; 6HR MAX TEMP:  30;

EASTON         MOCLDY    28  10  47 E6        30.15S WCI  22
PATUXENT       CLOUDY    30  17  58 E9        30.10F WCI  22
OCEAN CITY     CLOUDY    30  20  66 N6        30.11S WCI  24
WALLOPS ISLAND CLOUDY    30  18  60 N5        30.10S WCI  25
CAMBRIDGE      CLOUDY    28  12  50 NE5       30.11F WCI  23
SALISBURY      CLOUDY    28  17  63 NE5       30.10F WCI  23

$$
PAZ001-021-NYZ056-072-MDZ011-DCZ001-151300-
OTHER NEARBY LOCATIONS

CITY           SKY/WX    TMP DP  RH WIND       PRES   REMARKS
HARRISBURG     CLOUDY    23  12  62 CALM      30.09S
STATE COLLEGE  PTCLDY    14   7  73 CALM      30.00F
WILLIAMSPORT   CLOUDY    14   7  73 CALM      30.07R
BINGHAMTON     CLOUDY     9   5  84 S5        29.93R WCI   1
NEW YORK CITY  PTCLDY    21   8  57 W5        30.12R WCI  15
BALTIMORE      CLOUDY    26  13  57 SE5       30.11S WCI  20
WASHINGTON DC  CLOUDY    30  14  51 E6        30.12F WCI  24

$$


ASUS61 KPHI 151215
RTPPHI
Max/Min Temperature and Precipitation Table for New Jersey...
Eastern Pennsylvania...Delaware...and Eastern Maryland
National Weather Service Mt Holly NJ
715 AM EST Fri Dec 15 2017

Values represent highs yesterday...lows over the last 12 hours
and precipitation over the last 24 hours.

.BR PHI 1215 E DH00/TAIRZX/DH07/TAIRZP/PPDRZZ/SFDRZZ/SDIRZZ
:
:                                 MAX     MIN             SNOW   SNOW
:ID        LOCATION               TEMP    TEMP    PCPN    FALL   DEPTH
:
:...NORTHERN NEW JERSEY...
12N  : Andover Airport         :   29  /    8 /   0.01/      M/     M
TTN  : Mercer County AP        :   33  /   16 /   0.00/      M/     M
FWN  : Sussex Airport          :   29  /    5 /   0.00/      M/     M
TEB  : Teterboro               :   33  /   14 /   0.03/      M/     M
CDW  : Caldwell                :   31  /   13 /   0.02/      M/     M
EWR  : Newark Liberty          :   34  /   18 /   0.02/      M/     M
SMQ  : Somerville Airport      :   32  /    7 /   0.00/      M/     M
BLM  : Belmar Airport          :   34  /   18 /     T /      M/     M
:
:...SOUTHERN NEW JERSEY...
ACY  : Atlantic City Airport   :   41  /   21 /   0.00/      M/     M
VAY  : South Jersey Regional AP:   34  /   18 /   0.00/      M/     M
WRI  : Mcguire AFB             :   33  /   17 /   0.00/      M/     M
MIV  : Millville AP            :   39  /   18 /   0.00/      M/     M
WWD  : Wildwood Airport        :   42  /   24 /   0.00/      M/     M
ATLN4: Atlantic City Marina    :   42  /   25 /   0.00/      M/     M
:
:...EASTERN PENNSYLVANIA...
PHL  : Philadelphia AP         :   37  /   24 /   0.00/      M/     M
ABE  : Lehigh Valley Intl      :   31  /   10 /   0.00/      M/     M
RDG  : Reading AP              :   32  /   15 /   0.00/      M/     M
MPO  : Mount Pocono AP         :   20  /    4 /   0.00/      M/     M
AVP  : Wilkes-Barre AP         :   25  /    8 /   0.00/      M/     M
PTW  : Pottstown AP            :   30  /   12 /   0.00/      M/     M
DYL  : Doylestown AP           :   32  /   13 /   0.00/      M/     M
PNE  : Northeast Philadelphia  :   36  /   20 /   0.00/      M/     M
SEG  : Selinsgrove AP          :   30  /    9 /   0.00/      M/     M
THV  : York AP                 :   34  /   16 /   0.00/      M/     M
LNS  : Lancaster AP            :   32  /   14 /   0.00/      M/     M
UKT  : Quakertown AP           :    M  /    9 /   0.00/      M/     M
:
:...DELAWARE AND EASTERN MARYLAND...
ILG  : Wilmington Airport      :   37  /   21 /   0.00/      M/     M
GED  : Georgetown AP           :   45  /   24 /   0.00/      M/     M
ESN  : Easton Airport          :   41  /   26 /   0.00/      M/     M
NAK  : Annapolis Naval Academy :   43  /   28 /   0.00/      M/     M
DOV  : Dover AFB               :   40  /   22 /   0.01/      M/     M
OXB  : Ocean City AP           :   46  /   25 /   0.00/      M/     M
SBY  : Salisbury AP            :   46  /   25 /   0.00/      M/     M
BWI  : BWI Thurgood Marshall AP:   41  /   23 /   0.00/      M/     M
:
.END
:
.BR PHI 1215 E DH00/TAIRZX/DH07/TAIRZP
:
:...OTHER COASTAL OBSERVATIONS...
SDHN4: Sandy Hook              :   33  /   22
MSNN4: Manasquan               :   34  /   22
BGLN4: Barnegat Light          :   38  /   24
CMAN4: Cape May Ferry          :   42  /   25
LWSD1: Lewes                   :   43  /   30
CAMM2: Cambridge               :   45  /   28
TCBM2: Tolchester Beach        :   40  /   24
DELD1: Delaware City           :   38  /   25
PHBP1: USCG Washington St Phila:   35  /   25
NBLP1: Newbold Island          :   33  /   21
:
.END
:
These data are preliminary and have not undergone final quality
control by the National Climatic Data Center /NCDC/. Therefore...
these data are subject to revision. Final and certified climate data
can be accessed at www.ncdc.noaa.gov
:
$$